Weather History for KMZZ - July, 2013

Change the Weather History Date:

Thursday, July 25, 2013

  Actual Average (KMIE) Record (KMIE)
Temperature  
Mean Temperature 62 °F 74 °F  
Max Temperature 74 °F 84 °F 95 °F (1965)
Min Temperature 50 °F 64 °F 49 °F (2013)
Degree Days  
Heating Degree Days 3 0  
Month to date heating degree days 0  
Since 1 June heating degree days 24  
Since 1 July heating degree days 0  
Cooling Degree Days 0 9  
Month to date cooling degree days 243  
Year to date cooling degree days 542  
Since 1 June cooling degree days 459  
Growing Degree Days 12 (Base 50)    
Moisture  
Dew Point 53 °F    
Average Humidity 73    
Maximum Humidity 96    
Minimum Humidity 45    
Precipitation  
Precipitation 0.00 in 0.14 in 2.68 in (2001)
Month to date precipitation 3.64  
Year to date precipitation 23.87  
Sea Level Pressure  
Sea Level Pressure 30.10 in    
Wind  
Wind Speed 1 mph (East)    
Max Wind Speed 7 mph    
Max Gust Speed -    
Visibility 9 miles    
Events      
T = Trace of Precipitation, MM = Missing Value Source: NWS Daily Summary

Daily Weather History Graph

Daily Weather History Graph

Search for Another Location

Airport or City:

Trip Planner

Search our weather history database for the weather conditions in past years. The results will help you decide how hot, cold, wet, or windy it might be!

Date:

Astronomy

Jul. 25, 2013 Rise Set
Actual Time 6:33 AM EDT 9:04 PM EDT
Civil Twilight 6:02 AM EDT 9:35 PM EDT
Nautical Twilight 5:23 AM EDT 10:14 PM EDT
Astronomical Twilight 4:40 AM EDT 10:57 PM EDT
Moon 10:43 PM EDT (7/25) 10:03 AM EDT (7/25)
Length of Visible Light 15h 32m
Length of Day
14h 30m
Waning Gibbous, 88% of the Moon is Illuminated
Jul 25
Waning Gibbous
Jul 29
Last Quarter
Aug 6
New
Aug 14
First Quarter
Aug 20
Full

Hourly Weather History & Observations

Time (EDT) Temp. Dew Point Humidity Pressure Visibility Wind Dir Wind Speed Gust Speed Precip Events Conditions
12:15 AM 56.1 °F 54.0 °F 92% 30.05 in 10.0 mi Calm Calm - N/A   Clear
12:35 AM 55.6 °F 53.4 °F 92% 30.05 in 10.0 mi Calm Calm - N/A   Clear
12:55 AM 55.2 °F 53.2 °F 93% 30.05 in 10.0 mi Calm Calm - N/A   Clear
1:15 AM 55.0 °F 53.2 °F 94% 30.05 in 10.0 mi Calm Calm - N/A   Clear
1:35 AM 54.9 °F 53.1 °F 94% 30.04 in 10.0 mi Calm Calm - N/A   Clear
1:55 AM 55.0 °F 53.2 °F 94% 30.05 in 10.0 mi Calm Calm - N/A   Clear
2:15 AM 55.0 °F 53.4 °F 94% 30.04 in 10.0 mi Calm Calm - N/A   Clear
2:35 AM 54.5 °F 52.7 °F 94% 30.05 in 10.0 mi Calm Calm - N/A   Clear
2:55 AM 53.4 °F 51.6 °F 94% 30.05 in 10.0 mi Calm Calm - N/A   Clear
3:15 AM 53.4 °F 51.8 °F 94% 30.05 in 10.0 mi Calm Calm - N/A   Clear
3:35 AM 52.7 °F 51.1 °F 94% 30.06 in 7.0 mi Calm Calm - N/A   Clear
3:55 AM 52.3 °F 50.7 °F 94% 30.06 in 5.0 mi Calm Calm - N/A   Clear
4:15 AM 51.8 °F 50.4 °F 95% 30.06 in 7.0 mi Calm Calm - N/A   Clear
4:35 AM 52.0 °F 50.5 °F 95% 30.06 in 7.0 mi Calm Calm - N/A   Clear
4:55 AM 51.8 °F 50.4 °F 95% 30.07 in 5.0 mi Calm Calm - N/A   Clear
5:15 AM 51.6 °F 50.2 °F 95% 30.06 in 4.0 mi Calm Calm - N/A   Clear
5:35 AM 51.8 °F 50.5 °F 95% 30.07 in 4.0 mi Calm Calm - N/A   Clear
5:55 AM 51.6 °F 50.4 °F 95% 30.08 in 4.0 mi Calm Calm - N/A   Clear
6:15 AM 50.7 °F 49.5 °F 95% 30.09 in 5.0 mi Calm Calm - N/A   Clear
6:35 AM 50.5 °F 49.3 °F 95% 30.09 in 5.0 mi Calm Calm - N/A   Clear
6:55 AM 50.7 °F 49.5 °F 95% 30.09 in 3.0 mi Calm Calm - N/A   Clear
7:15 AM 52.0 °F 50.5 °F 95% 30.09 in 4.0 mi Calm Calm - N/A   Clear
7:35 AM 52.9 °F 51.6 °F 95% 30.10 in 4.0 mi Calm Calm - N/A   Clear
7:55 AM 54.9 °F 53.8 °F 96% 30.10 in 5.0 mi Calm Calm - N/A   Clear
8:15 AM 56.8 °F 55.6 °F 96% 30.10 in 7.0 mi East 3.5 mph - N/A   Clear
8:35 AM 58.8 °F 55.9 °F 90% 30.10 in 10.0 mi Calm Calm - N/A   Clear
8:55 AM 60.6 °F 55.4 °F 83% 30.11 in 10.0 mi ESE 4.6 mph - N/A   Clear
9:15 AM 62.2 °F 54.7 °F 76% 30.11 in 10.0 mi East 4.6 mph - N/A   Clear
9:35 AM 63.5 °F 54.0 °F 71% 30.12 in 10.0 mi East 4.6 mph - N/A   Clear
9:55 AM 65.1 °F 53.6 °F 66% 30.12 in 10.0 mi East 4.6 mph - N/A   Clear
10:15 AM 66.0 °F 52.7 °F 62% 30.13 in 10.0 mi ESE 4.6 mph - N/A   Clear
10:35 AM 66.9 °F 52.7 °F 60% 30.13 in 10.0 mi East 4.6 mph - N/A   Clear
10:55 AM 67.6 °F 52.7 °F 59% 30.13 in 10.0 mi SE 4.6 mph - N/A   Clear
11:15 AM 67.6 °F 52.5 °F 58% 30.14 in 10.0 mi SE 4.6 mph - N/A   Scattered Clouds
11:35 AM 68.2 °F 52.7 °F 58% 30.13 in 10.0 mi Calm Calm - N/A   Clear
11:55 AM 69.1 °F 52.5 °F 55% 30.13 in 7.0 mi East 5.8 mph - N/A   Scattered Clouds
12:15 PM 69.8 °F 52.7 °F 54% 30.12 in 10.0 mi ENE 6.9 mph - N/A   Scattered Clouds
12:35 PM 70.0 °F 52.7 °F 54% 30.12 in 10.0 mi East 3.5 mph - N/A   Scattered Clouds
12:55 PM 70.2 °F 52.2 °F 53% 30.12 in 10.0 mi East 4.6 mph - N/A   Scattered Clouds
1:15 PM 70.3 °F 52.5 °F 53% 30.13 in 10.0 mi SE 4.6 mph - N/A   Scattered Clouds
1:35 PM 70.9 °F 52.5 °F 52% 30.13 in 10.0 mi ENE 3.5 mph - N/A   Mostly Cloudy
1:55 PM 70.2 °F 52.5 °F 53% 30.13 in 10.0 mi ENE 3.5 mph - N/A   Mostly Cloudy
2:15 PM 71.4 °F 52.7 °F 52% 30.13 in 10.0 mi East 3.5 mph - N/A   Mostly Cloudy
2:35 PM 72.1 °F 51.8 °F 49% 30.12 in 10.0 mi ESE 3.5 mph - N/A   Mostly Cloudy
2:55 PM 71.6 °F 52.7 °F 51% 30.13 in 10.0 mi NNE 4.6 mph - N/A   Overcast
3:15 PM 71.2 °F 52.5 °F 52% 30.13 in 10.0 mi Calm Calm - N/A   Mostly Cloudy
3:35 PM 71.6 °F 52.5 °F 51% 30.13 in 10.0 mi North 4.6 mph - N/A   Mostly Cloudy
3:55 PM 72.3 °F 53.2 °F 51% 30.13 in 10.0 mi North 4.6 mph - N/A   Mostly Cloudy
4:15 PM 72.3 °F 53.1 °F 51% 30.12 in 10.0 mi Calm Calm - N/A   Overcast
4:35 PM 73.0 °F 52.7 °F 49% 30.11 in 7.0 mi Calm Calm - N/A   Mostly Cloudy
4:55 PM 73.0 °F 52.0 °F 48% 30.11 in 10.0 mi NNE 3.5 mph - N/A   Overcast
5:15 PM 71.8 °F 52.7 °F 51% 30.11 in 10.0 mi WNW 3.5 mph - N/A   Mostly Cloudy
5:35 PM 72.5 °F 53.4 °F 51% 30.11 in 10.0 mi Calm Calm - N/A   Scattered Clouds
5:55 PM 73.6 °F 52.0 °F 47% 30.10 in 10.0 mi Calm Calm - N/A   Scattered Clouds
6:15 PM 74.1 °F 51.4 °F 45% 30.09 in 10.0 mi ENE 4.6 mph - N/A   Mostly Cloudy
6:35 PM 73.8 °F 52.7 °F 48% 30.09 in 10.0 mi Calm Calm - N/A   Scattered Clouds
6:55 PM 73.2 °F 52.3 °F 48% 30.10 in 7.0 mi Calm Calm - N/A   Clear
7:15 PM 73.0 °F 53.4 °F 50% 30.11 in 10.0 mi Calm Calm - N/A   Scattered Clouds
7:35 PM 73.2 °F 52.3 °F 48% 30.11 in 10.0 mi Calm Calm - N/A   Scattered Clouds
7:55 PM 72.5 °F 52.2 °F 49% 30.10 in 7.0 mi Calm Calm - N/A   Scattered Clouds
8:15 PM 71.1 °F 55.2 °F 57% 30.10 in 7.0 mi Calm Calm - N/A   Clear
8:35 PM 69.6 °F 57.4 °F 65% 30.10 in 10.0 mi Calm Calm - N/A   Clear
8:55 PM 66.9 °F 58.1 °F 73% 30.11 in 10.0 mi Calm Calm - N/A   Clear
9:15 PM 64.6 °F 58.6 °F 81% 30.11 in 10.0 mi Calm Calm - N/A   Clear
9:35 PM 63.0 °F 57.7 °F 83% 30.11 in 10.0 mi Calm Calm - N/A   Clear
9:55 PM 61.9 °F 56.3 °F 82% 30.11 in 10.0 mi Calm Calm - N/A   Clear
10:15 PM 61.3 °F 56.3 °F 83% 30.10 in 10.0 mi Calm Calm - N/A   Clear
10:35 PM 60.8 °F 56.1 °F 85% 30.11 in 10.0 mi Calm Calm - N/A   Clear
10:55 PM 60.1 °F 55.9 °F 86% 30.11 in 10.0 mi Calm Calm - N/A   Clear
11:15 PM 58.5 °F 55.4 °F 90% 30.11 in 10.0 mi Calm Calm - N/A   Clear
11:35 PM 58.3 °F 55.4 °F 90% 30.11 in 10.0 mi Calm Calm - N/A   Clear
11:55 PM 57.9 °F 55.2 °F 91% 30.12 in 10.0 mi Calm Calm - N/A   Clear